When you browse on this site, cookies collect data to enhance your experience and personalize the content and advertising you see.
Visit our Privacy Policy to learn more. By continuing to use the site, you agree to this use of cookies and data.
  • In Hungary
  • List of Countries
  • For 7 days
  • Water Temperature
  • Satellite Maps
  • Weather Map
  • News
  • Weather Widgets
  • user-avatar
    Login

    Hourly Weather Buczak

    Today, 24 January, Thursday

    Time Temperature Precipitation Wind Pressure Humidity
    00:00 -8°C° 0 mm 5 mps 736 mmHg 75%
    01:00 -9°C° 0 mm 4 mps 736 mmHg 75%
    02:00 -10°C° 0 mm 5 mps 736 mmHg 75%
    03:00 -10°C° 0 mm 5 mps 737 mmHg 76%
    04:00 -10°C° 0 mm 5 mps 737 mmHg 76%
    05:00 -10°C° 0 mm 5 mps 737 mmHg 76%
    06:00 -10°C° 0 mm 5 mps 737 mmHg 76%
    07:00 -10°C° 0 mm 5 mps 737 mmHg 76%
    08:00 -10°C° 0 mm 5 mps 737 mmHg 74%
    09:00 -10°C° 0 mm 5 mps 738 mmHg 73%
    10:00 -10°C° 0 mm 5 mps 738 mmHg 71%
    11:00 -8°C° 0 mm 5 mps 738 mmHg 71%
    12:00 -8°C° 0 mm 5 mps 738 mmHg 70%
    13:00 -8°C° 0 mm 5 mps 738 mmHg 69%
    14:00 -8°C° 0 mm 5 mps 738 mmHg 70%
    15:00 -8°C° 0 mm 5 mps 738 mmHg 70%
    16:00 -8°C° 0 mm 5 mps 738 mmHg 71%
    17:00 -8°C° 0 mm 5 mps 738 mmHg 72%
    18:00 -8°C° 0 mm 5 mps 738 mmHg 72%
    19:00 -8°C° 0 mm 5 mps 738 mmHg 72%
    20:00 -8°C° 0 mm 5 mps 738 mmHg 73%
    21:00 -8°C° 0 mm 4 mps 739 mmHg 73%
    22:00 -8°C° 0 mm 4 mps 739 mmHg 74%
    23:00 -8°C° 0 mm 4 mps 739 mmHg 75%

    Tomorrow, 25 January, Friday

    Time Temperature Precipitation Wind Pressure Humidity
    00:00 -8°C° 0 mm 4 mps 739 mmHg 76%
    01:00 -8°C° 0 mm 4 mps 739 mmHg 78%
    02:00 -8°C° 0.1 mm 4 mps 739 mmHg 79%
    03:00 -8°C° 0.1 mm 4 mps 738 mmHg 81%
    04:00 -7°C° 0.1 mm 3 mps 738 mmHg 83%
    05:00 -7°C° 0.1 mm 3 mps 739 mmHg 83%
    06:00 -7°C° 0.1 mm 3 mps 739 mmHg 83%
    07:00 -7°C° 0.1 mm 3 mps 739 mmHg 83%
    08:00 -7°C° 0.1 mm 3 mps 739 mmHg 83%
    09:00 -6°C° 0.1 mm 2 mps 740 mmHg 82%
    10:00 -6°C° 0.1 mm 2 mps 740 mmHg 82%
    11:00 -6°C° 0 mm 2 mps 740 mmHg 80%
    12:00 -5°C° 0 mm 2 mps 740 mmHg 78%
    13:00 -5°C° 0 mm 2 mps 740 mmHg 76%
    14:00 -6°C° 0.1 mm 3 mps 740 mmHg 77%
    15:00 -6°C° 0.1 mm 3 mps 741 mmHg 78%
    16:00 -6°C° 0.1 mm 3 mps 741 mmHg 79%
    17:00 -6°C° 0 mm 3 mps 741 mmHg 79%
    18:00 -7°C° 0 mm 3 mps 742 mmHg 80%
    19:00 -7°C° 0 mm 3 mps 742 mmHg 80%
    20:00 -7°C° 0 mm 3 mps 742 mmHg 80%
    21:00 -8°C° 0 mm 4 mps 742 mmHg 80%
    22:00 -8°C° 0 mm 4 mps 743 mmHg 80%
    23:00 -7°C° 0 mm 3 mps 743 mmHg 81%

    Day after tomorrow, 26 January, Saturday

    Time Temperature Precipitation Wind Pressure Humidity
    00:00 -7°C° 0 mm 3 mps 742 mmHg 81%
    01:00 -8°C° 0 mm 3 mps 742 mmHg 82%
    02:00 -8°C° 0 mm 3 mps 742 mmHg 83%
    03:00 -7°C° 0 mm 2 mps 742 mmHg 84%
    04:00 -8°C° 0 mm 2 mps 742 mmHg 85%
    05:00 -8°C° 0 mm 2 mps 742 mmHg 84%
    06:00 -9°C° 0 mm 3 mps 741 mmHg 84%
    07:00 -9°C° 0 mm 3 mps 741 mmHg 83%
    08:00 -9°C° 0 mm 4 mps 741 mmHg 79%
    09:00 -8°C° 0 mm 5 mps 740 mmHg 76%
    10:00 -9°C° 0 mm 6 mps 739 mmHg 73%
    11:00 -8°C° 0 mm 6 mps 739 mmHg 70%
    12:00 -6°C° 0 mm 6 mps 738 mmHg 67%
    13:00 -5°C° 0 mm 6 mps 737 mmHg 64%
    14:00 -5°C° 0.6 mm 6 mps 736 mmHg 73%
    15:00 -4°C° 0.6 mm 6 mps 736 mmHg 82%
    16:00 -4°C° 0.6 mm 6 mps 735 mmHg 91%
    17:00 -3°C° 0.3 mm 6 mps 735 mmHg 91%
    18:00 -2°C° 0.3 mm 6 mps 735 mmHg 90%
    19:00 -2°C° 0.3 mm 6 mps 735 mmHg 90%
    20:00 -2°C° 0.1 mm 6 mps 735 mmHg 91%
    21:00 -1°C° 0.1 mm 5 mps 735 mmHg 92%
    22:00 -1°C° 0.1 mm 5 mps 735 mmHg 93%
    23:00 -1°C° 0.1 mm 5 mps 735 mmHg 93%

    27 January, Sunday

    Time Temperature Precipitation Wind Pressure Humidity
    00:00 -1°C° 0.1 mm 4 mps 736 mmHg 94%
    01:00 -1°C° 0.1 mm 4 mps 736 mmHg 94%
    02:00 -1°C° 0.1 mm 4 mps 735 mmHg 95%
    03:00 -1°C° 0.1 mm 4 mps 735 mmHg 95%
    04:00 -1°C° 0.1 mm 4 mps 735 mmHg 95%
    05:00 0°C° 0.1 mm 3 mps 734 mmHg 95%
    06:00 0°C° 0.1 mm 3 mps 734 mmHg 94%
    07:00 0°C° 0.1 mm 3 mps 734 mmHg 94%
    08:00 -1°C° 0 mm 4 mps 733 mmHg 93%
    09:00 -1°C° 0 mm 4 mps 733 mmHg 92%
    10:00 -1°C° 0 mm 4 mps 733 mmHg 91%
    11:00 0°C° 0 mm 5 mps 732 mmHg 89%
    12:00 0°C° 0 mm 5 mps 732 mmHg 87%
    13:00 +1°C° 0 mm 5 mps 731 mmHg 85%
    14:00 +1°C° 0 mm 5 mps 731 mmHg 82%
    15:00 +1°C° 0 mm 6 mps 730 mmHg 78%
    16:00 +1°C° 0 mm 6 mps 730 mmHg 75%
    17:00 -1°C° 0 mm 6 mps 730 mmHg 74%
    18:00 -1°C° 0 mm 6 mps 730 mmHg 73%
    19:00 -1°C° 0 mm 7 mps 730 mmHg 71%
    20:00 -2°C° 0.1 mm 7 mps 730 mmHg 73%
    21:00 -2°C° 0.1 mm 7 mps 730 mmHg 75%
    22:00 -2°C° 0.1 mm 7 mps 730 mmHg 76%
    23:00 -2°C° 0.3 mm 7 mps 729 mmHg 80%

    28 January, Monday

    Time Temperature Precipitation Wind Pressure Humidity
    00:00 -3°C° 0.3 mm 7 mps 729 mmHg 83%
    01:00 -3°C° 0.3 mm 7 mps 729 mmHg 86%
    02:00 -3°C° 0 mm 7 mps 728 mmHg 84%
    03:00 -3°C° 0 mm 7 mps 728 mmHg 82%
    04:00 -3°C° 0 mm 7 mps 728 mmHg 81%
    05:00 -3°C° 0 mm 7 mps 728 mmHg 81%
    06:00 -3°C° 0 mm 7 mps 728 mmHg 82%
    07:00 -3°C° 0 mm 7 mps 728 mmHg 82%
    08:00 -3°C° 0 mm 7 mps 728 mmHg 80%
    09:00 -2°C° 0 mm 7 mps 728 mmHg 79%
    10:00 -2°C° 0 mm 7 mps 729 mmHg 77%
    11:00 -1°C° 0 mm 7 mps 728 mmHg 76%
    12:00 -1°C° 0 mm 7 mps 728 mmHg 74%
    13:00 0°C° 0 mm 7 mps 728 mmHg 73%
    14:00 0°C° 0 mm 7 mps 728 mmHg 74%
    15:00 -1°C° 0 mm 6 mps 729 mmHg 75%
    16:00 -1°C° 0 mm 6 mps 729 mmHg 76%
    17:00 -1°C° 0 mm 6 mps 729 mmHg 78%
    18:00 -2°C° 0 mm 6 mps 730 mmHg 79%
    19:00 -2°C° 0 mm 6 mps 730 mmHg 80%
    20:00 -1°C° 0 mm 5 mps 731 mmHg 83%
    21:00 -2°C° 0 mm 4 mps 731 mmHg 85%
    22:00 -1°C° 0 mm 3 mps 732 mmHg 88%
    23:00 -1°C° 0 mm 3 mps 732 mmHg 88%

    29 January, Tuesday

    Time Temperature Precipitation Wind Pressure Humidity
    00:00 -2°C° 0 mm 3 mps 732 mmHg 88%
    01:00 -2°C° 0 mm 3 mps 732 mmHg 87%
    02:00 -2°C° 0 mm 3 mps 732 mmHg 87%
    03:00 -2°C° 0 mm 3 mps 732 mmHg 87%
    04:00 -2°C° 0 mm 3 mps 732 mmHg 86%
    05:00 -2°C° 0 mm 3 mps 732 mmHg 86%
    06:00 -2°C° 0 mm 3 mps 732 mmHg 86%
    07:00 -2°C° 0 mm 3 mps 732 mmHg 86%
    08:00 -2°C° 0 mm 3 mps 733 mmHg 83%
    09:00 -2°C° 0 mm 3 mps 733 mmHg 81%
    10:00 -1°C° 0 mm 3 mps 733 mmHg 78%
    11:00 -1°C° 0 mm 3 mps 733 mmHg 76%
    12:00 0°C° 0 mm 3 mps 733 mmHg 74%
    13:00 0°C° 0 mm 3 mps 733 mmHg 71%
    14:00 +1°C° 0 mm 2 mps 733 mmHg 73%
    15:00 -1°C° 0 mm 2 mps 733 mmHg 75%
    16:00 -1°C° 0 mm 2 mps 732 mmHg 77%
    17:00 -1°C° 0 mm 2 mps 733 mmHg 79%
    18:00 -2°C° 0 mm 2 mps 733 mmHg 81%
    19:00 -2°C° 0 mm 3 mps 733 mmHg 83%
    20:00 -2°C° 0 mm 3 mps 733 mmHg 80%
    21:00 -2°C° 0 mm 3 mps 733 mmHg 78%
    22:00 -3°C° 0 mm 4 mps 733 mmHg 76%
    23:00 -3°C° 0 mm 4 mps 733 mmHg 76%
    Show more